Home   Weather   Norwalk   Past weeks
Flag for USA

Past Weather in Norwalk, California, USA — Yesterday and Last 2 Weeks

Now
65 °F

Clear.


Feels Like: 65 °F
Forecast: 83 / 63 °F
Wind: 5 mph from North

Location: Fullerton Municipal Airport

Current Time: Jul 21, 2019 at 3:50:30 am

Latest Report: Jul 21, 2019 at 2:53 am


Visibility: 10 mi

Pressure: 29.89 "Hg

Humidity: 78%

Dew Point: 58 °F

Location of NorwalkLocation

Past Weather in Norwalk — Graph

°F

Norwalk Temperature Yesterday

Maximum temperature yesterday: 82 °F (at 4:53 pm)
Minimum temperature yesterday: 66 °F (at 12:32 am)
Average temperature yesterday: 72 °F

High & Low Weather Summary for the Past Weeks

 TemperatureHumidityPressure
High85 °F (Jul 15, 3:53 pm)91% (Jul 16, 7:04 am)30.05 "Hg (Jul 16, 7:04 am)
Low64 °F (Jul 8, 3:53 am)41% (Jul 20, 4:53 pm)29.75 "Hg (Jul 12, 5:53 pm)
Average71 °F67%29.92 "Hg
* Reported Jul 6 1:19 am — Jul 21 1:53 am, Norwalk. Weather by CustomWeather, © 2019

Note: Actual official high and low records may vary slightly from our data, if they occured in-between our weather recording intervals... More about our weather records

Advertising

Norwalk Weather History for the Previous 24 Hours

Scroll right to see more
 ConditionsComfort  
Time TempWeatherWind HumidityBarometerVisibility
1:53 am
Sun, Jul 21
65 °FClear.5 mph78%29.90 "Hg10 mi
12:53 am66 °FClear.3 mph75%29.91 "Hg10 mi
11:53 pm
Sat, Jul 20
66 °FClear.3 mph75%29.90 "Hg10 mi
10:53 pm67 °FClear.No wind73%29.90 "Hg10 mi
9:53 pm68 °FClear.5 mph68%29.89 "Hg10 mi
8:53 pm70 °FClear.6 mph64%29.87 "Hg10 mi
7:53 pm72 °FPassing clouds.9 mph59%29.85 "Hg10 mi
6:53 pm75 °FPassing clouds.8 mph55%29.85 "Hg10 mi
5:53 pm78 °FPassing clouds.8 mph50%29.85 "Hg10 mi
4:53 pm82 °FPassing clouds.7 mph41%29.85 "Hg10 mi
3:53 pm81 °FPassing clouds.9 mph45%29.86 "Hg10 mi
2:53 pm80 °FSunny.10 mph47%29.88 "Hg10 mi
1:53 pm79 °FSunny.10 mph50%29.90 "Hg10 mi
12:53 pm79 °FSunny.8 mph47%29.91 "Hg10 mi
11:53 am78 °FSunny.7 mph46%29.92 "Hg10 mi
10:53 am76 °FSunny.3 mph52%29.94 "Hg10 mi
10:02 am74 °FScattered clouds.No wind57%29.95 "Hg10 mi
8:53 am70 °FOvercast.No wind64%29.95 "Hg10 mi
7:53 am69 °FOvercast.No wind66%29.95 "Hg10 mi
6:53 am68 °FOvercast.3 mph65%29.94 "Hg10 mi
5:53 am67 °FOvercast.No wind71%29.93 "Hg10 mi
4:53 am67 °FOvercast.No wind71%29.93 "Hg10 mi
3:53 am67 °FOvercast.No wind71%29.92 "Hg10 mi
Weather by CustomWeather, © 2019

See weather overview